Regional Weather Roundup
Issued by NWS Newport/Morehead, NC

Current Version | Previous Version | Graphics & Text | Print | Product List | Glossary On
Versions: 1 2 3 4 5 6 7 8 9 10 11 12 13 14 15 16 17 18 19 20 21 22 23 24 25 26 27 28 29 30 31 32 33 34 35 36 37 38 39 40 41 42 43 44 45 46 47 48 49 50
000 ASUS42 KMHX 292113 RWRMHX WEATHER ROUNDUP FOR EASTERN NORTH CAROLINA NATIONAL WEATHER SERVICE NEWPORT/MOREHEAD CITY NC 500 PM EDT WED MAR 29 2017 NOTE: "FAIR" INDICATES FEW OR NO CLOUDS BELOW 12,000 FEET WITH NO SIGNIFICANT WEATHER AND/OR OBSTRUCTIONS TO VISIBILITY NCZ015>017-031-032-045>047-102-103-292200- NORTH COAST CITY SKY/WX TMP DP RH WIND PRES REMARKS EDENTON PTSUNNY 60 50 70 SE9 30.09 ELIZABETH CITY SUNNY 60 48 64 NE9 30.09R KITTY HAWK NOT AVBL MANTEO MOSUNNY 53 46 75 E13 30.10S $$ NCZ045>047-081-094-103-104-292200- CENTRAL COAST CITY SKY/WX TMP DP RH WIND PRES REMARKS FRISCO SUNNY 58 46 64 NE15G22 30.08R $$ NCZ095-097-098-100-101-292200- SOUTHERN COAST CITY SKY/WX TMP DP RH WIND PRES REMARKS BEAUFORT SUNNY 66 53 63 NE13G20 30.06S CEDAR ISLAND NOT AVBL JACKSONVILLE CLOUDY 71 56 58 N9 30.04R PINEY ISLAND CLEAR N/A N/A N/A NE13 30.07S WILMINGTON SUNNY 68 57 68 E10 30.03S $$ NCZ011>013-027>030-043-044-078>080-089-090>093-098-292200- COASTAL PLAIN CITY SKY/WX TMP DP RH WIND PRES REMARKS AHOSKIE N/A 66 51 57 CALM 30.06 CLINTON MOSUNNY 73 57 57 NE3 30.04F ELIZABETHTOWN PTSUNNY 76 56 50 E5 30.02S GOLDSBORO PTSUNNY 69 55 59 NE6 30.04S GREENVILLE CLOUDY 68 52 56 NE5 30.08S HAVELOCK MOSUNNY 65 51 60 NE13 30.07R KENANSVILLE NOT AVBL KINSTON PTSUNNY 68 54 60 N7 30.06F NEW BERN CLOUDY 67 54 63 NE8 30.07R RICHLANDS CLOUDY 71 56 58 NE10 30.05S ROCKY MOUNT CLOUDY 70 53 54 CALM 30.05F WASHINGTON CLOUDY 66 54 65 E3 30.07R WHITEVILLE SUNNY 78 55 44 E6 30.00S $$ AMZ130-135-150-152-154-156-158-170-250-252-270-ANZ085-086-088-633-658-670-292200- MARINE OBSERVATIONS STATION/POSITION TIME TEMP WIND PRES WAVE SWELL AIR SEA DIR/SP/G HT/PER HT/PER (UTC) (F) (DEG/KT/KT) (MB) (FT/S) (FT/S) CHESAPEAKE LIGHT NOT AVBL 64 E VA BEACH 2050 49 50 30/ 16/ 19 1018.4 6/ 6 3/10 DUCK 2048 49 51 50/ 13/ 14 1018.7 2 E DUCK 2100 51 N/A 4/ 9 2/11 OREGON INLET 2042 51 58 20/ 13/ 15 1018.7 13E OREGON INLT 2048 49 N/A 5/ 7 5/ 7 HATTERAS CG 2048 54 61 20/ 14/ 19 1018.2 DIAMOND BUOY 1950 57 73 30/ 21/ 25 1017.7 6/ 9 3/ 9 CAPE LOOKOUT 2100 60 40/ 16/ 17 1017.8 BEAUFORT LAB 2048 64 63 60/ 8/ 14 1017.0 30 SE NEW RVR IN 2008 61 60/ 16/ 21 1017.5 30 SE NEW RVR IN 2043 64 N/A 6/10 2/11 27 SE WRIGHTSVLE 2008 63 74 80/ 16/ 19 1016.6 5 SE WRIGHTSVLE 2008 60 59 90/ 10/ 21 1017.3 225 S CAPE HAT 2050 73 73 10/ 12/ 16 1014.8 6/10 5/10 41 SE CHARLESTON 2050 70 71 50/ 10/ 12 1015.4 4/11 3/11 $$

USA.gov is the U.S. government's official web portal to all federal, state and local government web resources and services.